Regional Weather Roundup
Issued by NWS Charleston, SC

Current Version | Previous Version | Graphics & Text | Print | Product List | Glossary On
Versions: 1 2 3 4 5 6 7 8 9 10 11 12 13 14 15 16 17 18 19 20 21 22 23 24 25 26 27 28 29 30 31 32 33 34 35 36 37 38 39 40 41 42 43 44 45 46 47 48 49 50
000 ASUS42 KCHS 171027 RWRCHS REGIONAL WEATHER ROUNDUP NATIONAL WEATHER SERVICE CHARLESTON SC 600 AM EDT TUE OCT 17 2017 NOTE: "FAIR" INDICATES FEW OR NO CLOUDS BELOW 12,000 FEET WITH NO SIGNIFICANT WEATHER AND/OR OBSTRUCTIONS TO VISIBILITY. NOT ALL STATIONS ARE QUALITY CONTROLLED. USE DATA WITH CAUTION... ESPECIALLY DEWPOINT OBSERVATIONS. SCZ027-030-031-034>040-042>050-171100- ...SOUTHEAST SOUTH CAROLINA... CITY SKY/WX TMP DP RH WIND PRES REMARKS N CHARLESTON MOCLDY 55 50 83 NE13 30.19R WATERFRONT PRK NOT AVBL JOHNS ISLAND FAIR 57 48 72 N15G23 30.19R PINOPOLIS N/A 57 54 88 NE16 30.11R MONCKS CORNER FAIR 54 46 76 NE9G17 30.21R SUMMERVILLE FAIR 52 48 87 N7 30.22R BEAUFORT MCAS MOCLDY 57 53 86 MISG 30.19R BEAUFORT ARPT FAIR 59 48 67 NE28G33 30.19R HILTON HEAD IS NOT AVBL WALTERBORO MOSUNNY 52 48 87 N5 30.22R ALLENDALE NOT AVBL ...SOUTHERN MIDLANDS AND PEE DEE... CITY SKY/WX TMP DP RH WIND PRES REMARKS GEORGETOWN NOT AVBL KINGSTREE FAIR 50 45 81 N7 30.23R ORANGEBURG CLOUDY 52 42 69 NE12 30.23R BARNWELL N/A 52 45 76 N7 30.24R AIKEN FAIR 46 41 81 N5 30.29R MANNING DRZL/FOG 50 46 87 MISG 30.23S VSB 1/4 COLUMBIA CLOUDY 52 42 69 VRB5 30.25R SUMTER CLOUDY 50 41 71 NE10 30.22R FLORENCE CLOUDY 49 45 86 N10 30.25R MYRTLE BEACH PTCLDY 54 45 71 N10 30.22R N MYRTLE BEACH PTCLDY 55 42 61 NE9 30.20R $$ GAZ063-065-086>088-099>101-113>116-118-119-134>141-150-171100- ...SOUTHEAST GEORGIA... CITY SKY/WX TMP DP RH WIND PRES REMARKS SAVANNAH ARPT MOCLDY 57 52 83 N12 30.19R HUNTER AAF CLOUDY 60 48 66 NE10G20 30.15R FORT STEWART CLOUDY 58 51 78 N7 30.16R STATESBORO CLOUDY 54 44 67 N3 30.21R SYLVANIA CLOUDY 53 47 82 NE5 30.23R CLAXTON FAIR 57 48 71 N7 30.21R ...CSRA...CENTRAL AND FAR SOUTHEAST GEORGIA... CITY SKY/WX TMP DP RH WIND PRES REMARKS THOMSON CLOUDY 53 42 66 E6 30.31R AUGUSTA-BUSH MOCLDY 53 44 71 N6 30.24R AUGUSTA-DANIEL PTCLDY 53 43 68 N7 30.25R SWAINSBORO FAIR 52 45 76 MISG 30.23R VIDALIA CLOUDY 55 46 71 NE7 30.21R EASTMAN FAIR 55 36 47 NE8 30.24R HAZLEHURST FAIR 58 38 47 NE5 30.19R ALMA CLOUDY 59 48 67 VRB3 30.17R WAYCROSS CLOUDY 61 51 69 NE10G16 30.16S JESUP FAIR 61 52 72 CALM 30.17 BAXLEY FAIR 55 46 71 NE8 30.18R BRUNSWICK CLOUDY 63 52 67 N10G18 30.13S SAINT SIMONS CLOUDY 68 58 70 NE21G31 30.11S $$ SCZ027-028-034-036>038-045-046-048>050-GAZ119-141-171100- ...LAKE AND SUPPLEMENTAL COASTAL OBSERVATIONS... STATION/POSITION TIME TEMP WIND PRES WAVE SWELL AIR SEA DIR/SP/G HT/PER HT/PER/DIR (UTC) (F) (DEG/KT/KT) (MB) (FT/S) (FT/S/D) WINYAH BAY 0930 57 20/ 11 1022.0R LAKE MURRAY 0950 51 360/ 3/ 7 1024.0R ACE BASIN NERRS 0945 58 10/ 5 1022.0R FORT PULASKI 1000 63 78 50/ 21/ 26 1021.7 SAPELO ISLAND 1000 65 30/ 13 1020.0 $$ ANZ835-935-AMZ111-154-330-350-352-354-370-450-454-472-171100- ...C-MAN AND BUOY OBSERVATIONS... STATION/POSITION TIME TEMP WIND PRES WAVE SWELL AIR SEA DIR/SP/G HT/PER HT/PER/DIR (UTC) (F) (DEG/KT/KT) (MB) (FT/S) (FT/S/D) BUOY 41004 1010 69 81 30/ 25/ 33 1019.2 BUOY 41008 0950 70 79 40/ 25/ 29 1018.7R 9/ 8 2/ 80/11 FOLLY BEACH CMAN 1000 60 10/ 22/ 27 1022.1R CAPERS NEARSHORE 1008 60 77 30/ 23/ 33 1020.6R FRIPP NEARSHORE 1008 65 40/ 23/ 29 N/A STATION/POSITION TIME TEMP WIND PRES WAVE SWELL AIR SEA DIR/SP/G HT/PER HT/PER/DIR (UTC) (F) (DEG/KT/KT) (MB) (FT/S) (FT/S/D) 5E ST. MARYS GA 1000 80 N/A 8/ 8 2/ 90/11 FRYING PAN BUOY 1010 67 78 30/ 25/ 31 1019.8 BUOY 41025 0950 66 81 20/ 27/ 31 1019.3R 9/ 8 3/ 40/16 CAPE LOOKOUT NC 1000 61 10/ 16/ 19 1020.8R BUOY 41002 0950 76 80 20/ 25/ 31 1013.5R 5/10 3/120/10 BUOY 41010 NOT AVBL ST AUGUSTINE FL 1000 76 81 20/ 26/ 29 1017.1R $$

USA.gov is the U.S. government's official web portal to all federal, state and local government web resources and services.